This is the latest recevied weather packets stored in our database for station/object KF0JHJ. If no packets are shown the sender has not sent any weather packets the latest 10 day(s).
| Time | Temp. | Humidity | Pressure | Rain* | Wind** | Luminosity | Snow |
|---|---|---|---|---|---|---|---|
| 1778103621 | 10° C | 48% | 1013.4 hPa | - | - | 241 W/m² | - |
| 1778103319 | 8.89° C | 47% | 1013.8 hPa | - | - | 531 W/m² | - |
| 1778103015 | 8.33° C | 48% | 1013.9 hPa | - | - | 215 W/m² | - |
| 1778102712 | 8.89° C | 48% | 1013.7 hPa | - | - | 229 W/m² | - |
| 1778102407 | 8.89° C | 49% | 1013.7 hPa | - | - | 223 W/m² | - |
| 1778102103 | 8.33° C | 47% | 1013.9 hPa | - | - | 221 W/m² | - |
| 1778101800 | 8.89° C | 49% | 1013.9 hPa | - | - | 399 W/m² | - |
| 1778101496 | 8.89° C | 49% | 1013.9 hPa | - | - | 276 W/m² | - |
| 1778101188 | 8.33° C | 50% | 1013.9 hPa | - | - | 198 W/m² | - |
| 1778100884 | 8.89° C | 50% | 1013.9 hPa | - | - | 209 W/m² | - |
| 1778100581 | 8.89° C | 51% | 1014 hPa | - | - | 239 W/m² | - |
| 1778100279 | 8.33° C | 50% | 1014.2 hPa | - | - | 434 W/m² | - |
| 1778099976 | 7.78° C | 50% | 1014.1 hPa | - | - | 186 W/m² | - |
| 1778099673 | 7.78° C | 50% | 1014 hPa | - | - | 252 W/m² | - |
| 1778099370 | 8.33° C | 49% | 1014.1 hPa | - | - | 254 W/m² | - |
| 1778099067 | 7.78° C | 50% | 1014.2 hPa | - | - | 267 W/m² | - |
| 1778098763 | 7.78° C | 49% | 1014.1 hPa | - | - | 283 W/m² | - |
| 1778098461 | 7.78° C | 49% | 1014.1 hPa | - | - | 213 W/m² | - |
| 1778098157 | 8.33° C | 48% | 1014.3 hPa | - | - | 259 W/m² | - |
| 1778097853 | 7.78° C | 53% | 1014.3 hPa | - | - | 279 W/m² | - |
| 1778097550 | 7.78° C | 51% | 1014.3 hPa | - | - | 268 W/m² | - |
| 1778097248 | 7.78° C | 52% | 1014.3 hPa | - | - | 235 W/m² | - |
| 1778096944 | 7.22° C | 53% | 1014.4 hPa | - | - | 325 W/m² | - |
| 1778096641 | 7.22° C | 52% | 1014.5 hPa | - | - | 251 W/m² | - |
| 1778096338 | 7.22° C | 52% | 1014.4 hPa | - | - | 259 W/m² | - |
* Rain since midnight (hover to see other rain measurements)
** Current wind speed in m/s (hover to see current wind gust speed)